"Pseudo-MPEC" for ZTF03c8

Created 2019 Jun 13 5:10:09 UT using Find_Orb

Click here for an explanation of pseudo-MPECs

 
 Astrometry: 
     ZTF03c8  C2019 06 06.19562612 12 13.24 +00 15 41.8    ~66Nb       UNEOCPI41
     ZTF03c8  C2019 06 06.19597212 12 13.91 +00 15 51.0    ~66Nb       UNEOCPI41
     ZTF03c8  C2019 06 06.21239112 12 43.75 +00 24 00.0    ~66Nb 19.04RUNEOCPI41
     ZTF03c8  C2019 06 06.21273812 12 44.37 +00 24 09.8    ~66Nb 19.04RUNEOCPI41

Station data:
(I41) Palomar Mountain--ZTF  (N33.357340 W116.859780)  US/California. 1.2-m
   f/2.44 Oschin Schmidt + CCD.

Orbital elements:  ZTF03c8
   Perihelion 2019 May 3.594960 +/- 23.3 TT = 14:16:44 (JD 2458607.094960)
Epoch 2019 Jun  6.0 TT = JDT 2458640.5   Earth MOID: 0.0036   AutoNEOCP
M  28.66885963 +/- 50               (J2000 ecliptic)
n   0.85821957 +/- 0.767            Peri.  326.25592 +/- 55
a   1.09665604 +/- 0.653            Node   254.15780 +/- 1.5
e   0.0834954 +/- 0.208             Incl.    7.43713 +/- 49
P   1.15/419.47d           H 26.6   G  0.15   U 12.6  SR
q 1.00509020 +/- 0.326    Q 1.18822189 +/- 17.5
From 4 observations 2019 June 6 (24.6 min); mean residual 0".35
Residuals in arcseconds: 
190606 I41  .32-  .54+    190606 I41  .10+  .27+    
190606 I41  .33+  .55-    190606 I41  .10-  .25-    

Ephemerides (geocentric):
Date (UTC) HH   RA              Dec         delta   r     elong  mag " sig PA
---- -- -- --  -------------   -----------  ------ ------ -----  --- ---- ---
2019 06 13 05  15 32 39.423   +36 21 39.67  .02030 1.0242 114.9 20.4  24d 162
2019 06 13 06  15 33 25.837   +36 26 04.58  .02039 1.0243 114.9 20.5  24d 162
2019 06 13 07  15 34 11.967   +36 30 26.15  .02047 1.0243 114.9 20.5  25d 162
2019 06 13 08  15 34 57.815   +36 34 44.43  .02055 1.0244 114.9 20.5  25d 162
2019 06 13 09  15 35 43.384   +36 38 59.46  .02064 1.0244 114.9 20.5  25d 162
2019 06 13 10  15 36 28.673   +36 43 11.28  .02072 1.0244 114.9 20.5  25d 162
2019 06 13 11  15 37 13.686   +36 47 19.93  .02080 1.0245 114.9 20.5  25d 162
2019 06 13 12  15 37 58.423   +36 51 25.45  .02089 1.0245 114.9 20.5  25d 162
2019 06 13 13  15 38 42.887   +36 55 27.90  .02097 1.0245 114.9 20.5  25d 162
2019 06 13 14  15 39 27.079   +36 59 27.30  .02106 1.0246 114.9 20.5  25d 162
2019 06 13 15  15 40 11.000   +37 03 23.69  .02114 1.0246 114.8 20.5  25d 162
2019 06 13 16  15 40 54.652   +37 07 17.13  .02122 1.0247 114.8 20.5  25d 162
2019 06 13 17  15 41 38.038   +37 11 07.64  .02131 1.0247 114.8 20.6  25d 162
2019 06 13 18  15 42 21.157   +37 14 55.26  .02139 1.0247 114.8 20.6  25d 162
2019 06 13 19  15 43 04.013   +37 18 40.04  .02148 1.0248 114.8 20.6  25d 162
2019 06 13 20  15 43 46.607   +37 22 22.00  .02156 1.0248 114.8 20.6  25d 162
2019 06 13 21  15 44 28.940   +37 26 01.19  .02165 1.0248 114.8 20.6  25d 162
2019 06 13 22  15 45 11.013   +37 29 37.65  .02173 1.0249 114.8 20.6  25d 162
2019 06 13 23  15 45 52.830   +37 33 11.41  .02182 1.0249 114.8 20.6  25d 162
2019 06 14 00  15 46 34.391   +37 36 42.50  .02190 1.0250 114.7 20.6  25d 162
2019 06 14 01  15 47 15.697   +37 40 10.96  .02199 1.0250 114.7 20.6  25d 162
2019 06 14 02  15 47 56.751   +37 43 36.83  .02208 1.0250 114.7 20.6  25d 161
2019 06 14 03  15 48 37.554   +37 47 00.13  .02216 1.0251 114.7 20.6  25d 161
2019 06 14 04  15 49 18.108   +37 50 20.91  .02225 1.0251 114.7 20.7  25d 161
2019 06 14 05  15 49 58.414   +37 53 39.20  .02233 1.0251 114.7 20.7  25d 161
2019 06 14 06  15 50 38.474   +37 56 55.02  .02242 1.0252 114.7 20.7  25d 161
2019 06 14 07  15 51 18.289   +38 00 08.42  .02251 1.0252 114.7 20.7  25d 161
2019 06 14 08  15 51 57.862   +38 03 19.42  .02259 1.0253 114.7 20.7  25d 161
2019 06 14 09  15 52 37.193   +38 06 28.05  .02268 1.0253 114.6 20.7  25d 161
2019 06 14 10  15 53 16.285   +38 09 34.35  .02277 1.0253 114.6 20.7  25d 161
2019 06 14 11  15 53 55.139   +38 12 38.34  .02285 1.0254 114.6 20.7  25d 161
2019 06 14 12  15 54 33.756   +38 15 40.07  .02294 1.0254 114.6 20.7  25d 161
2019 06 14 13  15 55 12.138   +38 18 39.55  .02303 1.0255 114.6 20.7  25d 161
2019 06 14 14  15 55 50.286   +38 21 36.81  .02312 1.0255 114.6 20.7  25d 161
2019 06 14 15  15 56 28.203   +38 24 31.89  .02320 1.0255 114.6 20.7  25d 161
2019 06 14 16  15 57 05.890   +38 27 24.82  .02329 1.0256 114.6 20.8  25d 161
2019 06 14 17  15 57 43.348   +38 30 15.61  .02338 1.0256 114.6 20.8  25d 161
2019 06 14 18  15 58 20.579   +38 33 04.31  .02347 1.0256 114.6 20.8  25d 161
2019 06 14 19  15 58 57.584   +38 35 50.93  .02355 1.0257 114.5 20.8  25d 161
2019 06 14 20  15 59 34.365   +38 38 35.50  .02364 1.0257 114.5 20.8  25d 161
2019 06 14 21  16 00 10.924   +38 41 18.06  .02373 1.0258 114.5 20.8  25d 161
2019 06 14 22  16 00 47.262   +38 43 58.62  .02382 1.0258 114.5 20.8  25d 161
2019 06 14 23  16 01 23.380   +38 46 37.21  .02391 1.0258 114.5 20.8  25d 161
2019 06 15 00  16 01 59.280   +38 49 13.87  .02400 1.0259 114.5 20.8  25d 161
2019 06 15 01  16 02 34.964   +38 51 48.60  .02408 1.0259 114.5 20.8  25d 161
2019 06 15 02  16 03 10.433   +38 54 21.45  .02417 1.0259 114.5 20.8  25d 161
2019 06 15 03  16 03 45.688   +38 56 52.43  .02426 1.0260 114.5 20.8  25d 161
2019 06 15 04  16 04 20.732   +38 59 21.56  .02435 1.0260 114.5 20.9  25d 161